Regional Weather Roundup
Issued by NWS Cleveland, OH

Home | Current Version | Previous Version | Text Only | Print | Product List | Glossary On
Versions: 1 2 3 4 5 6 7 8 9 10 11 12 13 14 15 16 17 18 19 20 21 22 23 24 25 26 27 28 29 30 31 32 33 34 35 36 37 38 39 40 41 42 43 44 45 46 47 48 49 50
000
ASUS41 KCLE 231612
RWRCLE
OHIO REGIONAL WEATHER ROUNDUP
NATIONAL WEATHER SERVICE WILMINGTON, OH
1100 AM EST THU FEB 23 2017

NOTE: "FAIR" INDICATES FEW OR NO CLOUDS BELOW 12,000 FEET WITH NO
SIGNIFICANT WEATHER AND/OR OBSTRUCTIONS TO VISIBILITY.

OHZ001>008-015>018-024>027-034-035-043-044-231700-
   NORTHWEST OHIO

CITY           SKY/WX    TMP DP  RH WIND       PRES   REMARKS
DEFIANCE       FAIR      59  50  72 SW8       29.75S
FINDLAY        CLOUDY    61  52  72 W14       29.76R
TOLEDO EXPRESS FAIR      59  52  77 SW13      29.74R
TOLEDO EXEC    FAIR      61  53  75 SW15      29.75R
LIMA           CLOUDY    58  55  90 W14       29.78R
$$

OHZ009>014-019>023-028>033-038-089-231700-
   NORTHEAST OHIO

CITY           SKY/WX    TMP DP  RH WIND       PRES   REMARKS
CLE-HOPKINS    CLOUDY    63  53  70 W17       29.78R
CLE-LAKEFRONT  CLOUDY    59  52  77 W9        29.74R
CUY CO. ARPT   CLOUDY    63  55  77 SW12      29.76R
LORAIN-ELYRIA  CLOUDY    60  52  74 W15       29.77R
ASHTABULA      CLOUDY    61  56  83 SW10      29.75S
AKRON-CANTON   CLOUDY    61  55  81 SW14      29.79S
WOOSTER        CLOUDY    61  55  81 SW14      29.78F
MANSFIELD      CLOUDY    59  55  87 SW14G21   29.79R
YOUNGSTOWN     CLOUDY    60  54  80 SW10      29.77F
$$

OHZ042-051>053-060>062-070>072-077>081-231700-
  SOUTHWEST OHIO

CITY           SKY/WX    TMP DP  RH WIND       PRES   REMARKS
CINC-COVINGTON PTSUNNY   63  57  81 SW14      29.81S
CINC-LUNKEN    CLOUDY    64  58  80 S12       29.82R
HAMILTON       FAIR      68  58  70 SW5       29.82R
DAYTON         CLOUDY    61  57  87 SW9       29.81S
WRIGHT-PAT AFB CLOUDY    63  60  91 SW10      29.80S
DAYTON GENERAL CLOUDY    62  56  80 SW10      29.81R
WILMINGTON     PTSUNNY   63  57  81 SW13      29.81F
$$

OHZ036-037-039>041-045>050-054>059-063>069-073>076-082>088-231700-
  CENTRAL AND SOUTHEAST OHIO

CITY           SKY/WX    TMP DP  RH WIND       PRES   REMARKS
COLUMBUS       CLOUDY    64  57  78 S10       29.80F
OSU AIRPORT    CLOUDY    64  58  80 SW13      29.80S
BOLTON FIELD   CLOUDY    64  54  68 SW13G20   29.81F
RICKENBACK AFB CLOUDY    63  58  82 SW14      29.80F
NEWARK         CLOUDY    63  56  78 SW9       29.81S
MARION         CLOUDY    60  55  83 SW12      29.79S
LANCASTER      FAIR      67  57  70 SW10      29.82F
ZANESVILLE     PTSUNNY   64  56  75 SW10      29.82S
NEW PHILLY     CLOUDY    62  56  80 SW8       29.81F
$$




USA.gov is the U.S. government's official web portal to all federal, state and local government web resources and services.